Location: Dumbr?vi?a
(45.8833°N, 22.7000°E)
Time: 14:23:36
(UTC+00:00)

CZ-4 R/B - Pass Details

Date: 03 March 2021
Orbit: 532 x 597 km, 97.7° (Epoch: 16 April)

Event Time Altitude Azimuth Distance (km) Brightness Sun altitude
Rises 18:02:12 0° 202° (SSW) 2,667 5.0 -18.8°
Reaches altitude 10° 18:04:47 10° 221° (SW) 1,787 4.3 -19.2°
Maximum altitude 18:07:33 19° 267° (W) 1,329 4.2 -19.7°
Drops below altitude 10° 18:10:22 10° 314° (NW) 1,814 4.8 -20.1°
Sets 18:13:02 0° 332° (NNW) 2,723 5.4 -20.6°
